Home > Weather > Larnaca > Past weeks

Flag for Cyprus Past Weather in Larnaca, Cyprus — Yesterday and Last 2 Weeks

Now
88 °F

Passing clouds.


Feels Like: 98 °F
Forecast: 70 / 95 °F
Wind: 13 mph from Southwest

Location: Larnaca Airport

Current Time: Jul 26, 2016 at 11:30:17 AM

Latest Report: Jul 26, 2016 at 11:00 AM


Visibility: N/A

Pressure: 29.68 "Hg

Humidity: 66%

Dew Point: 75 °F

Location of LarnacaLocation

Past Weather in Larnaca — Graph

°F

Larnaca Temperature Yesterday

Maximum temperature yesterday: 93 °F (at 9:30 AM)
Minimum temperature yesterday: 77 °F (at 3:00 AM)
Average temperature yesterday: 87 °F

High & Low Weather Summary for the Past Weeks

 TemperatureHumidityPressure
High97 °F (Jul 11, 11:00 AM)100% (Jul 24, 6:00 AM)29.86 "Hg (Jul 24, 6:00 AM)
Low72 °F (Jul 26, 4:30 AM)20% (Jul 11, 11:00 AM)29.59 "Hg (Jul 18, 4:00 PM)
Average84 °F64%29.70 "Hg
* Reported Jul 11 10:00 AM — Jul 26 10:30 AM, Larnaca, Weather by CustomWeather, © 2016

Note: Actual official high and low records may vary slightly from our data, if they occured in-between our weather recording intervals... More about our weather records

Advertising

Larnaca Weather History for the Previous 24 Hours

Scroll right to see more
 ConditionsComfort  
Time TempWeatherWind HumidityBarometerVisibility
10:30 AM
Tue, Jul 26
88 °FPassing clouds.12 mph66%29.68 "HgN/A
10:00 AM86 °FScattered clouds.14 mph75%29.68 "HgN/A
9:30 AM84 °FScattered clouds.9 mph74%29.68 "HgN/A
9:00 AM84 °FScattered clouds.7 mph79%29.68 "HgN/A
8:30 AM82 °FPartly sunny.5 mph84%29.68 "HgN/A
8:00 AM84 °FScattered clouds.2 mph70%29.68 "HgN/A
7:30 AM81 °FPartly sunny.1 mph42%29.68 "HgN/A
7:00 AM77 °FPassing clouds.No wind47%29.68 "HgN/A
6:30 AM73 °FClear.1 mph50%29.68 "Hg10 mi
6:00 AM72 °FClear.2 mph53%29.65 "Hg10 mi
5:30 AM73 °FClear.3 mph53%29.65 "Hg10 mi
5:00 AM73 °FClear.5 mph53%29.65 "Hg10 mi
4:30 AM72 °FClear.1 mph57%29.65 "Hg10 mi
4:00 AM73 °FClear.2 mph50%29.65 "Hg10 mi
3:30 AM73 °FPassing clouds.3 mph50%29.65 "HgN/A
3:00 AM77 °FClear.2 mph44%29.62 "Hg10 mi
2:30 AM77 °FClear.3 mph47%29.62 "Hg10 mi
2:00 AM77 °FClear.3 mph51%29.62 "Hg10 mi
1:30 AM77 °FClear.2 mph47%29.65 "Hg10 mi
1:00 AM77 °FClear.2 mph47%29.65 "Hg10 mi
12:30 AM77 °FClear.2 mph47%29.65 "Hg10 mi
12:00 AM79 °FClear.3 mph51%29.65 "Hg10 mi
11:30 PM
Mon, Jul 25
79 °FClear.6 mph61%29.65 "Hg10 mi
11:00 PM81 °FClear.6 mph58%29.65 "Hg10 mi
10:30 PM84 °FClear.8 mph40%29.65 "Hg10 mi
10:00 PM82 °FClear.8 mph55%29.65 "Hg10 mi
9:30 PM84 °FClear.8 mph58%29.65 "Hg10 mi
9:00 PM86 °FClear.8 mph43%29.65 "Hg10 mi
8:30 PM88 °FSunny.12 mph40%29.62 "Hg10 mi
8:00 PM88 °FSunny.10 mph49%29.62 "Hg10 mi
7:30 PM88 °FSunny.12 mph49%29.62 "Hg10 mi
7:00 PM90 °FSunny.13 mph52%29.62 "Hg10 mi
6:30 PM88 °FSunny.15 mph59%29.62 "Hg10 mi
6:00 PM90 °FSunny.13 mph52%29.62 "Hg10 mi
5:30 PM90 °FSunny.14 mph55%29.62 "Hg10 mi
5:00 PM90 °FSunny.13 mph55%29.62 "Hg10 mi
4:30 PM90 °FSunny.14 mph55%29.62 "Hg10 mi
4:00 PM90 °FSunny.13 mph59%29.62 "Hg10 mi
3:30 PM88 °FPassing clouds.10 mph62%29.62 "HgN/A
3:00 PM90 °FSunny.10 mph55%29.62 "Hg10 mi
2:30 PM90 °FSunny.10 mph63%29.62 "Hg10 mi
2:00 PM88 °FSunny.12 mph70%29.62 "Hg10 mi
1:30 PM90 °FPassing clouds.13 mph67%29.62 "HgN/A
1:00 PM90 °FPassing clouds.14 mph67%29.62 "HgN/A
12:30 PM90 °FPassing clouds.14 mph63%29.62 "HgN/A
12:00 PM90 °FSunny.13 mph63%29.62 "Hg10 mi
11:30 AM91 °FSunny.12 mph52%29.62 "Hg10 mi
11:00 AM91 °FSunny.9 mph52%29.62 "Hg10 mi
Weather by CustomWeather, © 2016

See weather overviewHow to use our weather pages